weather.gov     
National Weather Service

Regional Weather Roundup
NWS Homepage
This page is being discontinued on March 12, 2014.
The same data is available at this site. Please update your bookmarks.
Thank you, and we apologize for the inconvenience.
Please send an email to SR-SRH.Webmaster@noaa.gov with any concerns.


Current Version
Previous Version:    01  02  03  04  05  06  07  08  09  10  11  12  13  14  15  16  17  18  19  20  21  22  23  24  25  26  27  28  29  30  
   31  32  33  34  35  36  37  38  39  40  41  42  43  44  45  46  47  48  49  50  51  52  53  54  
[Printable]
816
ASUS41 KGYX 241510
RWRGYX
WEATHER ROUNDUP FOR MAINE AND NEW HAMPSHIRE
NATIONAL WEATHER SERVICE GRAY ME
1000 AM EST MON NOV 24 2014

MEZ002-005-006-010-012-015-018-020-021-024-026-027-029-241600-
MAINE

CITY           SKY/WX    TMP DP  RH WIND       PRES   REMARKS
PORTLAND       HVY RAIN  57  55  93 S20G37    29.75F FOG
SANFORD        CLOUDY    55  52  88 S14G26    29.74F
BAR HARBOR     CLOUDY    54  54 100 SE20G30   29.90F
WISCASSET      HVY RAIN  56  54  93 S9G23     29.81F VSB 1
ROCKLAND       CLOUDY    54  54 100 SE17G28   29.83F
FRYEBURG       LGT RAIN  41  40  96 CALM      29.73F FOG
LEWISTONAUBURN CLOUDY    55  54  94 S18G30    29.74F
AUGUSTA        LGT RAIN  54  53  97 S16G30    29.77F FOG
WATERVILLE     CLOUDY    54  52  94 SE8G20    29.75F
BANGOR         LGT RAIN  52  51  97 SE15      29.84F FOG
GREENVILLE       N/A     43  43 100 SE10G20   29.75F
MILLINOCKET    LGT RAIN  39  38  96 E3        29.89F FOG
HOULTON        LGT RAIN  46  42  86 SE13G21   29.93F FOG
PRESQUE ISLE   CLOUDY    43  37  81 SE8       29.92F
FRENCHVILLE    LGT RAIN  38  37  97 SE22G28   29.87F
CARIBOU        LGT RAIN  41  39  93 S15       29.91F FOG
$$

NHZ002-005-008-009-011-012-014-241600-
NEW HAMPSHIRE

CITY           SKY/WX    TMP DP  RH WIND       PRES   REMARKS
PORTSMOUTH     LGT RAIN  56  54  94 S24G33    29.70F FOG
ROCHESTER      LGT RAIN  55  54  96 S16G23    29.71F FOG
NASHUA         LGT RAIN  61  59  94 SE9G16    29.70F FOG
MANCHESTER     LGT RAIN  59  57  93 S16G22    29.68F FOG
CONCORD        LGT RAIN  57  56  96 S10G21    29.68F FOG
LACONIA        CLOUDY    55  54  94 S9        29.67F
PLYMOUTH       RAIN      42  42 100 CALM      29.69S VSB 3/4
BERLIN         CLOUDY    50  47  89 SE9G18    29.67F
WHITEFIELD     LGT RAIN  56  49  77 S13G33    29.61F
JAFFREY        LGT RAIN  59  57  93 S13       29.68F FOG
LEBANON        LGT RAIN  50  48  93 CALM      29.63F VSB 3/4
MT WASHINGTON  LGT RAIN  37  37 100 S55G71      N/A  VSB 0
$$

VTZ005-007-008-241600-
VERMONT

CITY           SKY/WX    TMP DP  RH WIND       PRES   REMARKS
ST JOHNSBURY     N/A     50  48  93 MISG      29.58F
MONTPELIER     CLOUDY    50  32  50 S9        29.62F
BURLINGTON     CLOUDY    56  52  86 S9        29.51F
$$

MAZ007-012-024-CTZ003-RIZ002-NYZ038-NYZ072-241600-
SOUTHERN NEW ENGLAND AND NY

CITY           SKY/WX    TMP DP  RH WIND       PRES   REMARKS
BOSTON         LGT RAIN  60  58  92 S18G28    29.74F FOG
WORCESTER      LGT RAIN  59  58  96 S20G29    29.71F FOG
NANTUCKET      CLOUDY    57  55  93 S25G36    29.85F FOG
PROVIDENCE     RAIN      60  59  96 S22G35    29.74F FOG
HARTFORD       LGT RAIN  63  60  90 S13       29.67S FOG
ALBANY         CLOUDY    61  57  87 S14       29.59F
NEW YORK CITY  CLOUDY    61  57  87 SE9       29.68F
$$

ANZ081-ANZ082-ANZ150-NHZ014-MEZ023>029-241600-
COASTAL MARINE OBSERVATIONS

STATION/POSITION TIME  TEMP    WIND        PRES    WAVE
                       AIR SEA DIR/SP/G            HT/PER
                 (UTC) (F)     (DEG/KT/KT) (MB)    (FT/S)
MOUNT DESERT ROC 1500   53                 1013.3F
MATINICUS ROCK   1500          150/ 41/ 46 1008.8F
PORTLAND WX BUOY 1450   55 51  160/ 29/ 35 1006.8F   6/ 5
WELLS            1400   54 46  180/ 19/ 24 1008.2F
ISLE OF SHOALS   1500   54     160/ 36/ 39 1005.5F
JEFFREYS LEDGE   1421      51                N/A     6/ 5
CASHES LEDGE BUO 1450   54 51  150/ 29/ 33 1009.3F   6/ 5
$$

.............KEY..............
   WCI - WIND CHILL
   TC  - TEMPERATURE IN CELSIUS
   VSB - VISIBILITY IN MILES
   HX  - HEAT INDEX
   FAIR- INDICATES FEW OR NO CLOUDS BELOW 12,000 FT, WITH NO
         SIGNIFICANT WEATHER AND/OR OBSTRUCTIONS TO VISIBILITY.






U.S. Dept. of Commerce
NOAA National Weather Service
1325 East West Highway
Silver Spring, MD 20910
E-mail: w-nws.webmaster@noaa.gov
Page last modified: May 16, 2007
NATIONAL WEATHER SERVICE: for Safety, for Work, for Fun - FOR LIFE